Terminal Aerodrome Forecast
Issued by NWS Dodge City, KS

Home | Current Version | Previous Version | Graphics & Text | Print | Product List | Glossary Off
Versions: 1 2 3 4 5 6 7 8 9 10 11 12 13 14 15 16 17 18 19 20 21 22 23 24 25 26 27 28 29 30 31 32 33 34 35 36 37 38 39 40 41 42 43 44 45 46 47 48 49 50

596
FTUS43 KDDC 231134
TAFDDC
TAF
KDDC 231134Z 2312/2412 22012KT P6SM FEW025
     FM231330 34010KT P6SM OVC025
     FM231900 03005KT P6SM SCT040
     FM240100 14009KT P6SM BKN250
     FM240700 16010KT P6SM BKN110 WS020/19040KT=

USA.gov is the U.S. government's official web portal to all federal, state and local government web resources and services.